Booneville, Arkansas, United States (72927)
Lat: 35.14N, Lon: 93.92W
Wx Zone: ARZ030
Local Info
Past Weather Observations for Sunday, February 22, 2015

NOTE: This archive is for the closest National Weather Service station to Booneville. Information may differ from the station used for current weather conditions.

Click here for Long-term Archive

Time Weather Temperature Dewpoint Humidity Pressure Winds Precip Visibility
23:53
Overcast
30°F / -1°C 18°F / -8°C 59% 30.54 in
(1034 mb)
N 13.8 mph
(N 22 kph)
- 10SM
22:53
Overcast
30°F / -1°C 18°F / -8°C 59% 30.54 in
(1034 mb)
NNE 11.5 mph
(NNE 19 kph)
- 10SM
21:53
Overcast
30°F / -1°C 18°F / -8°C 59% 30.57 in
(1035 mb)
N 10.4 mph
(N 17 kph)
- 10SM
20:53
Overcast
30°F / -1°C 19°F / -7°C 64% 30.51 in
(1033 mb)
N 13.8 mph
(N 22 kph)
- 10SM
19:53
Overcast
32°F / 0°C 19°F / -7°C 60% 30.51 in
(1033 mb)
N 12.7 mph
(N 20 kph)
- 10SM
18:53
Overcast
32°F / 0°C 27°F / -3°C 80% 30.48 in
(1032 mb)
N 4.6 mph
(N 7 kph)
0.00 in
(0.00 mm)
10SM
18:12
Overcast
Light Snow
30°F / -1°C 27°F / -3°C 86% 30.45 in
(1031 mb)
NE 8.1 mph
(NE 13 kph)
0.00 in
(0.00 mm)
3SM
17:53
Overcast
Light Snow
30°F / -1°C 27°F / -3°C 86% 30.42 in
(1030 mb)
NE 6.9 mph
(NE 11 kph)
0.01 in
(0.25 mm)
1 3/4SM
17:34
Overcast
Light Snow
30°F / -1°C 28°F / -2°C 93% 30.42 in
(1030 mb)
NE 8.1 mph
(NE 13 kph)
0.01 in
(0.25 mm)
1 3/4SM
17:31
Overcast
Light Snow
30°F / -1°C 28°F / -2°C 93% 30.42 in
(1030 mb)
NE 8.1 mph
(NE 13 kph)
0.01 in
(0.25 mm)
2SM
17:24
Overcast
Light Snow
30°F / -1°C 28°F / -2°C 93% 30.42 in
(1030 mb)
NNE 10.4 mph
(NNE 17 kph)
0.01 in
(0.25 mm)
1 3/4SM
16:53
Overcast
Light Snow
30°F / -1°C 28°F / -2°C 93% 30.39 in
(1029 mb)
NNE 11.5 mph
(NNE 19 kph)
0.03 in
(0.76 mm)
1 1/4SM
16:31
Overcast
Light Snow
30°F / -1°C 28°F / -2°C 93% 30.39 in
(1029 mb)
NE 12.7 mph
(NE 20 kph)
0.03 in
(0.76 mm)
1 1/4SM
16:07
Overcast
Light Snow
32°F / 0°C 28°F / -2°C 87% 30.39 in
(1029 mb)
NE 11.5 mph
(NE 19 kph)
0.01 in
(0.25 mm)
3/4SM
15:53
Overcast
Light Snow
32°F / 0°C 28°F / -2°C 87% 30.39 in
(1029 mb)
NE 11.5 mph
(NE 19 kph)
0.07 in
(1.78 mm)
1SM
15:51
Overcast
Light Snow
32°F / 0°C 28°F / -2°C 87% 30.39 in
(1029 mb)
NE 10.4 mph
(NE 17 kph)
0.07 in
(1.78 mm)
1SM
15:42
Overcast
Light Snow
32°F / 0°C 28°F / -2°C 87% 30.36 in
(1028 mb)
NNE 10.4 mph
(NNE 17 kph)
0.07 in
(1.78 mm)
1 1/4SM
15:32
Obscured
Light Snow
32°F / 0°C 28°F / -2°C 87% 30.36 in
(1028 mb)
NE 15 mph
(NE 24 kph)
0.06 in
(1.52 mm)
1/2SM
15:06
Obscured
Heavy Snow
32°F / 0°C 28°F / -2°C 87% 30.36 in
(1028 mb)
NE 17.3 mph
(NE 28 kph)
0.02 in
(0.51 mm)
1/4SM
14:53
Overcast
Snow
34°F / 1°C 28°F / -2°C 81% 30.39 in
(1029 mb)
NE 16.1 mph
(NE 26 kph)
0.01 in
(0.25 mm)
1/2SM
14:49
Overcast
Light Snow
34°F / 1°C 28°F / -2°C 81% 30.39 in
(1029 mb)
NNE 15 mph
(NNE 24 kph)
0.00 in
(0.00 mm)
3/4SM
14:35
Overcast
Light Snow
36°F / 2°C 27°F / -3°C 70% 30.36 in
(1028 mb)
N 18.4 mph
(N 30 kph)
0.00 in
(0.00 mm)
1 3/4SM
13:53
Overcast
37°F / 3°C 28°F / -2°C 70% 30.33 in
(1027 mb)
NE 15 mph
(NE 24 kph)
- 10SM
13:18
Overcast
37°F / 3°C 28°F / -2°C 70% 30.33 in
(1027 mb)
N 17.3 mph
(N 28 kph)
- 9SM
12:53
Overcast
39°F / 4°C 30°F / -1°C 70% 30.36 in
(1028 mb)
NNE 15 mph
(NNE 24 kph)
- 9SM
12:44
Overcast
39°F / 4°C 30°F / -1°C 70% 30.36 in
(1028 mb)
NNE 15 mph
(NNE 24 kph)
- 9SM
11:53
Overcast
43°F / 6°C 32°F / 0°C 66% 30.36 in
(1028 mb)
NE 10.4 mph
(NE 17 kph)
- 10SM
11:25
Overcast
43°F / 6°C 30°F / -1°C 61% 30.36 in
(1028 mb)
NE 11.5 mph
(NE 19 kph)
- 10SM
10:53
Mostly Cloudy
43°F / 6°C 34°F / 1°C 71% 30.36 in
(1028 mb)
ENE 6.9 mph
(ENE 11 kph)
- 10SM
10:39
Mostly Cloudy
43°F / 6°C 34°F / 1°C 71% 30.36 in
(1028 mb)
NE 9.2 mph
(NE 15 kph)
- 10SM
09:53
Overcast
39°F / 4°C 32°F / 0°C 75% 30.36 in
(1028 mb)
E 4.6 mph
(E 7 kph)
- 10SM
09:34
Overcast
39°F / 4°C 32°F / 0°C 75% 30.36 in
(1028 mb)
NE 5.8 mph
(NE 9 kph)
- 10SM
08:53
Partly Cloudy
39°F / 4°C 34°F / 1°C 81% 30.36 in
(1028 mb)
Variable 4.6 mph
(Variable 7 kph)
- 9SM
07:53
Clear
36°F / 2°C 32°F / 0°C 87% 30.3 in
(1026 mb)
NE 5.8 mph
(NE 9 kph)
- 7SM
06:53
Clear
34°F / 1°C 30°F / -1°C 87% 30.27 in
(1025 mb)
N 3.5 mph
(N 6 kph)
- 9SM
05:53
Clear
34°F / 1°C 30°F / -1°C 87% 30.21 in
(1023 mb)
NE 6.9 mph
(NE 11 kph)
- 9SM
04:53
Clear
36°F / 2°C 30°F / -1°C 81% 30.18 in
(1022 mb)
E 5.8 mph
(E 9 kph)
- 10SM
03:53
Clear
36°F / 2°C 32°F / 0°C 87% 30.18 in
(1022 mb)
E 5.8 mph
(E 9 kph)
- 10SM
02:53
Clear
36°F / 2°C 30°F / -1°C 81% 30.18 in
(1022 mb)
ENE 4.6 mph
(ENE 7 kph)
- 10SM
01:53
Clear
37°F / 3°C 32°F / 0°C 81% 30.18 in
(1022 mb)
ENE 5.8 mph
(ENE 9 kph)
- 10SM
00:53
Clear
37°F / 3°C 32°F / 0°C 81% 30.18 in
(1022 mb)
NE 5.8 mph
(NE 9 kph)
- 10SM
Time Weather Temperature Dewpoint Humidity Pressure Winds Precip Visibility


Weather for websites

WeatherForYou.com, LLC is not responsible for any damages or problems caused by this service. Current weather conditions are obtained from the closest station including government and personal stations which may have varying degrees of accuracy. Weather forecasts are derived from the NOAA NDFD. Like all things, this site belongs to Jesus Christ... He just trusts me to maintain it. If you have any questions or comments email webmaster@weatherforyou.com

Copyright © 2015, WeatherForYou.com LLC. All rights reserved.